Hourly Data Report for November 01, 2019

All times are specified in Local Standard Time (LST). Add 1 hour to adjust for Daylight Saving Time where and when it is observed.

WOODSTOCK NEWBRIDGE
NEW BRUNSWICK
Current Station Operator: ECCC - MSC

46°09'08.000" N
67°32'34.000" W
154.00 m
8105603
71606
EWD

Download Data

Hourly Data (November 2019)
Hourly Data Report for November 1, 2019
TIME Temp Definition
°C
Dew Point Definition
°C
Rel Hum Definition
%
Wind Dir Definition
10's deg

Wind Spd Definition
km/h
Visibility Definition
km
Stn Press Definition
kPa
Hmdx Definition


Wind Chill Definition


Weather Definition


00:00 17.9 16.9 94 17 22   98.26     LegendNANA
01:00 17.8 17.0 95 17 21   98.17     LegendNANA
02:00 18.2 17.0 93 17 22   98.13     LegendNANA
03:00 18.1 17.0 93 17 20   97.99     LegendNANA
04:00 18.1 17.0 94 16 23   97.85     LegendNANA
05:00 18.1 17.2 95 17 23   97.73     LegendNANA
06:00 18.3 17.3 94 15 21   97.51     LegendNANA
07:00 19.2 17.4 89 16 26   97.40     LegendNANA
08:00 18.8 17.8 94 16 25   97.34     LegendNANA
09:00 11.8 11.1 95 26 18   97.52     LegendNANA
10:00 11.5 10.9 96 26 3   97.52     LegendNANA
11:00 8.5 7.1 91 26 24   97.72     LegendNANA
12:00 8.4 6.4 87 24 21   97.93     LegendNANA
13:00 10.3 4.3 67 22 23   97.98     LegendNANA
14:00 9.5 1.7 58 22 24   98.16     LegendNANA
15:00 10.2 -1.5 44 23 28   LegendMM     LegendNANA
16:00 8.5 -3.7 42 24 31   98.60     LegendNANA
17:00 6.6 -3.1 50 24 18   98.81     LegendNANA
18:00 6.1 -3.6 50 25 25   99.04     LegendNANA
19:00 5.5 -3.9 51 25 20   99.18     LegendNANA
20:00 4.9 -4.0 53 25 24   99.34     LegendNANA
21:00 4.6 -4.2 53 26 28   99.45     LegendNANA
22:00 4.3 -3.9 55 26 23   LegendMM     LegendNANA
23:00 4.1 -4.1 55 26 16   99.74     LegendNANA

Notes on Data Quality.

Legend

  • E = Estimated
  • M = Missing
  • NA = Not Available
Date modified: